星链-2463 (STARLINK-2463 )

导读

STARLINK-2463是美国太空探索技术公司(SpaceX)星链星座中的卫星,于2021年4月7日发射升空,属于星链项目的组网卫星,旨在为全球提供高速低延迟宽带互联网服务。星链系统通过大规模低轨卫星组网,可覆盖偏远地区,也为各类终端提供卫星互联网接入服务,不过其大规模部署也引发了天文观测等领域的争议。

基本信息
目录编号:
48122
目录名称:
STARLINK-2463
国际标识:
2021-027AG
轨道中心:
EARTH
卫星名称:
星链-2463
卫星全名:
星链-2463 (STARLINK-2463 )
卫星状态:
已陨落 最后检测时间 2025-01-11
发射日期:
2021-04-07 UTC
国别 :
美国 (US)
星等 :
--
轨道信息
数据来源 国际轨道数据
星历时间: 2025-01-11T08:29:53+0800
轨道信息已过期523天
半长轴: 6532.89km
偏心率: 0.0005363
轨道倾角: 53.031°
近地点辐角 297.520°
升交点赤经 234.543°
平近点角 169.542°
近地点: 151.251km
远地点: 158.259km
周期: 87.583分钟
每日圈数: 16.441626
详细信息
固有亮度:
5
最大亮度:
2.5
卫星平台:
Starlink V1.0
覆盖范围:
全球
运营商:
太空探索技术公司
运营商所在国:
美国
制造商(研发单位):
太空探索技术公司
制造商所在国:
美国
使用方式:
暂无
卫星简介
星链(Starlink)计划是由太空探索技术公司(SpaceX)提出的一个巨型低轨卫星互联网星座项目,计划在2019年至2024年间在太空搭建由约1.2万颗卫星组成的“星链”网络,其中1584颗将部署在地球上空550千米处的近地轨道,并从2020年开始工作。该卫星仍在工作。